Regional Weather Roundup
Issued by NWS

Home | Current Version | Previous Version | Text Only | Print | Product List | Glossary On
Versions: 1 2 3 4 5 6 7 8 9 10 11 12 13 14 15 16 17 18 19 20 21 22 23 24 25 26 27 28 29 30 31 32 33 34 35 36 37 38 39 40 41 42 43 44 45 46 47 48 49 50
000
ASUS44 KBMX 252310
RWRAL

ALABAMA REGIONAL WEATHER ROUNDUP
NATIONAL WEATHER SERVICE BIRMINGHAM AL
600 PM CDT SAT APR 25 2015

NOTE: "FAIR" INDICATES FEW OR NO CLOUDS BELOW 12,000 FEET
WITH NO SIGNIFICANT WEATHER AND/OR OBSTRUCTIONS TO VISIBILITY.

THE REMARK "TC" DENOTES TEMPERATURE IN DEGREES CELSIUS.

ALZ001>011-014-016>018-020-260000-
NORTH ALABAMA

CITY           SKY/WX    TMP DP  RH WIND       PRES   REMARKS
MUSCLE SHOALS  SUNNY     78  65  63 SW15      29.59F
HUNTSVILLE     PTSUNNY   78  67  68 SW13      29.60F
DECATUR        PTSUNNY   76  68  76 SW8G17    29.60F
HALEYVILLE       N/A     76  68  76 SW8G17    29.64F
GADSDEN        CLOUDY   N/A N/A N/A SW3       29.61F
$$

ALZ012-013-022-023-030>036-040>044-260000-
WEST CENTRAL ALABAMA

CITY           SKY/WX    TMP DP  RH WIND       PRES   REMARKS
TUSCALOOSA     CLOUDY    80  69  69 W12       29.64S
$$

ALZ015-024>027-033>036-040>044-260000-
CENTRAL ALABAMA

CITY           SKY/WX    TMP DP  RH WIND       PRES   REMARKS
BIRMINGHAM     CLOUDY    70  66  87 S5        29.66F
MONTGOMERY     CLOUDY    74  65  73 S13G21    29.65F
SHELBY CO ARPT CLOUDY    75  70  84 CALM      29.66S
MAXWELL AFB    CLOUDY    74  66  75 SW10G21   29.64F
GREENVILLE     FAIR      71  66  84 SW8       29.68F
$$

ALZ019-021-028-029-037-038-045>048-260000-
EAST CENTRAL ALABAMA

CITY           SKY/WX    TMP DP  RH WIND       PRES   REMARKS
ANNISTON       LGT RAIN  74  69  85 W6        29.66R
ALEXANDER CITY CLOUDY    77  64  65 W6        29.69R
AUBURN         NOT AVBL
$$

ALZ051>064-260000-
SOUTHWEST ALABAMA

CITY           SKY/WX    TMP DP  RH WIND       PRES   REMARKS
MOBILE         CLOUDY    70  66  87 SW6       29.70F
BROOKLEY FIELD CLOUDY    71  67  87 S3        29.72R
EVERGREEN      NOT AVBL
$$

ALZ049-050-065>069-260000-
SOUTHEAST ALABAMA

CITY           SKY/WX    TMP DP  RH WIND       PRES   REMARKS
DOTHAN         TSTM      69  67  93 SW20G33   29.83R FOG
OZARK          HVY RAIN  68  63  83 W10       29.74F
TROY           CLOUDY    69  67  93 VRB7      29.66F
EUFAULA        TSTM      70  67  90 SW5       29.70R
$$


USA.gov is the U.S. government's official web portal to all federal, state and local government web resources and services.